Tracking 29799 objects as of 11-Oct-2024
HD Live streaming from Space Station
objects crossing your sky now

STARLINK-2031

Track STARLINK-2031 now!
10-day predictions
STARLINK-2031 is classified as:


NORAD ID: 47648
Int'l Code: 2021-012AE
Perigee: 553.3 km
Apogee: 555.3 km
Inclination: 53.1 °
Period: 95.6 minutes
Semi major axis: 6925 km
RCS: Unknown
Launch date: February 16, 2021
Source: United States (US)
Launch site: AIR FORCE EASTERN TEST RANGE (AFETR)
Your satellite tracking list
Your tracking list is empty




NASA's NSSDC Master Catalog

Two Line Element Set (TLE):
1 47648U 21012AE  24284.51707941  .00022805  00000-0  15440-2 0  9992
2 47648  53.0538 204.3201 0001474  89.9974 270.1184 15.06421614202624
Source of the keplerian elements: AFSPC